OpenBCM V1.13 (Linux)

Packet Radio Mailbox

DB0FHN

[JN59NK Nuernberg]

 Login: GUEST





  
CX2SA  > KEPS     25.03.05 09:03l 151 Lines 3940 Bytes #999 (0) @ AMSAT
BID : ORB05083.O
Read: GUEST
Subj: Orbital Elements  05083.OSCAR
Path: DB0FHN<DB0MRW<OK0PPL<DB0RES<DK0WUE<SP7MGD<7M3TJZ<EA5AKC<CX2SA
Sent: 050325/0657Z @:CX2SA.LAV.URY.SA #:27314 [Minas] FBB7.00e $:ORB05083.O
From: CX2SA@CX2SA.LAV.URY.SA
To  : KEPS@AMSAT


HR AMSAT ORBITAL ELEMENTS FOR OSCAR SATELLITES
FROM WA5QGD FORT WORTH,TX March 24, 2005
SEND SUBSCRIBE/UNSUBSCRIBE TO majordomo@amsat.org ONLY
BID: ORB05083.O
TO ALL RADIO AMATEURS BT

Satellite: AO-07
Catalog number: 07530
Epoch time:      05082.75910956
Element set:    0407
Inclination:      101.6405 deg
RA of node:       130.6497 deg
Eccentricity:    0.0012144
Arg of perigee:   041.0253 deg
Mean anomaly:     319.1731 deg
Mean motion:   12.53571002 rev/day
Decay rate:       -2.8e-07 rev/day^2
Epoch rev:           38894
Checksum:              269

Satellite: AO-10
Catalog number: 14129
Epoch time:      05082.26539306
Element set:     163
Inclination:      027.1705 deg
RA of node:       040.9049 deg
Eccentricity:    0.6036414
Arg of perigee:   175.1014 deg
Mean anomaly:     196.0295 deg
Mean motion:   02.05865282 rev/day
Decay rate:      -1.21e-06 rev/day^2
Epoch rev:           16376
Checksum:              276

Satellite: UO-11
Catalog number: 14781
Epoch time:      05082.84246279
Element set:     741
Inclination:      098.2000 deg
RA of node:       078.7019 deg
Eccentricity:    0.0007981
Arg of perigee:   272.8691 deg
Mean anomaly:     087.1544 deg
Mean motion:   14.79193216 rev/day
Decay rate:       4.64e-06 rev/day^2
Epoch rev:           12918
Checksum:              320

Satellite: RS-10/11
Catalog number: 18129
Epoch time:      05082.96450632
Element set:    0644
Inclination:      082.9240 deg
RA of node:       301.1801 deg
Eccentricity:    0.0010155
Arg of perigee:   265.3606 deg
Mean anomaly:     094.6388 deg
Mean motion:   13.72755858 rev/day
Decay rate:        4.0e-07 rev/day^2
Epoch rev:           88938
Checksum:              307

Satellite: FO-20
Catalog number: 20480
Epoch time:      05083.56811945
Element set:     856
Inclination:      099.0213 deg
RA of node:       273.8795 deg
Eccentricity:    0.0540838
Arg of perigee:   071.4812 deg
Mean anomaly:     294.4254 deg
Mean motion:   12.83345535 rev/day
Decay rate:       -1.7e-07 rev/day^2
Epoch rev:           70864
Checksum:              320

Satellite: RS-12/13
Catalog number: 21089
Epoch time:      05083.21478312
Element set:     870
Inclination:      082.9253 deg
RA of node:       333.9614 deg
Eccentricity:    0.0028088
Arg of perigee:   318.9083 deg
Mean anomaly:     040.9952 deg
Mean motion:   13.74448667 rev/day
Decay rate:        1.7e-07 rev/day^2
Epoch rev:           70882
Checksum:              325

Satellite: RS-15
Catalog number: 23439
Epoch time:      05082.90571417
Element set:    0871
Inclination:      064.8141 deg
RA of node:       245.4711 deg
Eccentricity:    0.0161657
Arg of perigee:   331.2248 deg
Mean anomaly:     027.9831 deg
Mean motion:   11.27551340 rev/day
Decay rate:       -3.9e-07 rev/day^2
Epoch rev:           42177
Checksum:              293

Satellite: FO-29
Catalog number: 24278
Epoch time:      05082.79260142
Element set:    0924
Inclination:      098.5566 deg
RA of node:       143.8535 deg
Eccentricity:    0.0351164
Arg of perigee:   037.7009 deg
Mean anomaly:     324.8190 deg
Mean motion:   13.52908753 rev/day
Decay rate:       -7.9e-07 rev/day^2
Epoch rev:           42464
Checksum:              327

Satellite: SO-33
Catalog number: 25509
Epoch time:      05083.73464187
Element set:     329
Inclination:      031.4288 deg
RA of node:       149.9434 deg
Eccentricity:    0.0355509
Arg of perigee:   147.9007 deg
Mean anomaly:     214.3794 deg
Mean motion:   14.27973244 rev/day
Decay rate:        5.1e-07 rev/day^2
Epoch rev:           33474
Checksum:              323

Satellite: AO-40
Catalog number: 26609
Epoch time:      05082.93154514
Element set:     516
Inclination:      008.2959 deg
RA of node:       313.6197 deg
Eccentricity:    0.7951582
Arg of perigee:   020.6709 deg
Mean anomaly:     358.7880 deg
Mean motion:   01.25588406 rev/day
Decay rate:      -2.95e-06 rev/day^2
Epoch rev:            2019
Checksum:              327



Read previous mail | Read next mail


 14.07.2026 20:20:27lGo back Go up